Miscellaneous Local Product
Issued by NWS Hastings, NE

Home | Current Version | Previous Version | Text Only | Print | Product List | Glossary Off
Versions: 1 2 3 4 5 6 7 8 9 10 11 12 13 14 15 16 17 18 19 20 21 22 23 24 25 26 27 28 29 30 31 32 33 34 35 36 37 38 39 40 41 42 43 44 45 46 47 48 49 50

000
AXUS43 KGID 290902
MISGRI

GID CWA HOURLY WEATHER ROUNDUP
NATIONAL WEATHER SERVICE HASTINGS NE
400 AM CDT FRI JUL 29 2016

NOTE: "FAIR" INDICATES FEW OR NO CLOUDS BELOW 12,000 FEET WITH NO
SIGNIFICANT WEATHER AND/OR OBSTRUCTIONS TO VISIBILITY.

...SOUTH CENTRAL NEBRASKA...

CITY           SKY/WX    TMP DP  RH WIND       PRES   REMARKS
GRAND ISLAND   CLOUDY    66  65  96 N3        30.05F
HASTINGS       CLOUDY    66  64  93 N3        30.06F
ORD            PTCLDY    63  61  93 NW6       30.06F
YORK           CLOUDY    66  64  94 NW3       30.04S
AURORA         CLOUDY    65  65  98 CALM      30.05S
LEXINGTON      CLEAR     61  59  94 CALM      30.09S FOG
HOLDREGE       CLEAR     62  61  96 CALM      30.06F FOG
HEBRON         MOCLDY    65  62  91 CALM      30.01F

...NEBRASKA PANHANDLE...

CITY           SKY/WX    TMP DP  RH WIND       PRES   REMARKS
CHADRON        CLEAR     56  55  97 W3        30.15S
ALLIANCE       FOG       53  52  96 W5        30.17S VSB 3/4
SCOTTSBLUFF    CLEAR     60  57  89 NE6       30.16F
SIDNEY         CLOUDY    62  60  93 NW3       30.18F

...WESTERN AND NORTH CENTRAL NEBRASKA...

CITY           SKY/WX    TMP DP  RH WIND       PRES   REMARKS
VALENTINE      NOT AVBL
AINSWORTH      HVY RAIN  61  61 100 N7        30.12F
ONEILL         LGT RAIN  66  64  94 N6        30.09S
BROKEN BOW     CLEAR     60  60 100 W3        30.09F
IMPERIAL       PTCLDY    63  61  93 W5        30.13F
NORTH PLATTE   CLEAR     57  56  96 N3        30.11F
MCCOOK         MOCLDY    60  59  96 NW6       30.10F

...EASTERN NEBRASKA...

CITY           SKY/WX    TMP DP  RH WIND       PRES   REMARKS
NORFOLK        CLOUDY    67  62  84 NE5       30.04F
SO SIOUX CITY  MOCLDY    66  61  84 NE6       30.03F
TEKAMAH        CLOUDY    65  63  93 N6        30.01F
COLUMBUS       CLOUDY    66  57  72 N3        30.03F
ALBION         CLOUDY    65  63  90 N5        30.05F
OMAHA EPPLEY   CLOUDY    69  64  84 N7        30.00S
MILLARD        CLOUDY    72  64  74 CALM      30.00S
LINCOLN        CLOUDY    68  64  87 CALM      30.01F
NEBRASKA CITY  CLEAR     66  66 100 CALM      30.00S
BEATRICE       CLEAR     64  62  91 CALM      30.00F
FALLS CITY     CLOUDY    69  67  93 N5        29.97F

...NORTHERN KANSAS...

CITY           SKY/WX    TMP DP  RH WIND       PRES   REMARKS
GOODLAND       CLOUDY    62  60  93 CALM      30.14F
HILL CITY      CLOUDY    68  67  96 W6        30.05F FOG
NORTON         MOSUNNY   63  61  94 NW7       30.06F
SMITH CENTER   CLEAR     64  63  94 NE9       30.03S
BELOIT         PTCLDY    66  64  94 N5        29.99S
HAYS           CLOUDY    66  57  72 NW7       30.03R
RUSSELL        CLOUDY    66  64  93 W7        29.99F
CONCORDIA      CLOUDY    66  65  96 N6        29.99F
SALINA         MOCLDY    69  66  90 NW5       29.98F
TOPEKA         CLEAR     68  65  90 CALM      29.95F



USA.gov is the U.S. government's official web portal to all federal, state and local government web resources and services.